DLH146 EDDH-ESGG

Flight info

Callsign DLH146
Flight time N/A
Altitude 33000
Route SOKWO1G/33 SOKWO T814 EXNEL M105 AMRAK DCT GOTEX N873 LOBBI
Aircraft A320/M-SDE3FGHIRWY/LB1

Departure

Time 2026-05-05 13:08
Airport Hamburg Helmut Schmidt Airport (EDDH)

Arrival

Time N/A
Airport Göteborg Landvetter Airport (ESGG)
Time Latitude Longitude Altitude Speed Heading
2026-05-05 12:44 53.63168 10.00368 48 ft 0 kts 86°
2026-05-05 12:44 53.63168 10.00364 49 ft 0 kts 86°
2026-05-05 12:56 53.63167 10.00344 48 ft 4 kts 86°
2026-05-05 12:57 53.63165 10.00307 48 ft 4 kts 91°
2026-05-05 12:57 53.63171 10.00267 43 ft 4 kts 131°
2026-05-05 12:57 53.63186 10.00250 48 ft 0 kts 176°
2026-05-05 13:01 53.63012 10.00203 48 ft 14 kts 213°
2026-05-05 13:01 53.62934 10.00119 48 ft 12 kts 212°
2026-05-05 13:01 53.62869 10.00038 48 ft 11 kts 232°
2026-05-05 13:01 53.62847 9.99967 48 ft 0 kts 243°
2026-05-05 13:06 53.62846 9.99966 48 ft 1 kts 243°
2026-05-05 13:06 53.62810 9.99843 45 ft 16 kts 245°
2026-05-05 13:06 53.62845 9.99764 45 ft 1 kts 334°
2026-05-05 13:07 53.62846 9.99763 45 ft 0 kts 331°
2026-05-05 13:07 53.62882 9.99731 45 ft 28 kts 332°
2026-05-05 13:07 53.63286 9.99388 47 ft 98 kts 333°
2026-05-05 13:07 53.64062 9.98712 49 ft 150 kts 333°
2026-05-05 13:08 53.65088 9.97819 369 ft 167 kts 336°
2026-05-05 13:08 53.66088 9.96898 1097 ft 164 kts 334°
2026-05-05 13:08 53.67114 9.95937 1584 ft 176 kts 335°
2026-05-05 13:08 53.68283 9.94969 1899 ft 198 kts 341°
2026-05-05 13:09 53.69693 9.94599 2443 ft 211 kts
2026-05-05 13:09 53.71159 9.94671 3350 ft 211 kts
2026-05-05 13:09 53.72642 9.94710 4096 ft 216 kts
2026-05-05 13:09 53.74119 9.95367 4694 ft 230 kts 25°
2026-05-05 13:10 53.75546 9.96863 5018 ft 254 kts 31°
2026-05-05 13:10 53.77083 9.98558 5499 ft 271 kts 32°
2026-05-05 13:10 53.78678 10.00322 6284 ft 277 kts 31°
2026-05-05 13:10 53.80305 10.02119 7044 ft 282 kts 31°
2026-05-05 13:11 53.81962 10.03939 7818 ft 286 kts 31°
2026-05-05 13:11 53.83645 10.05778 8607 ft 290 kts 31°
2026-05-05 13:11 53.85357 10.07650 9373 ft 295 kts 31°
2026-05-05 13:11 53.87127 10.09496 9816 ft 300 kts 24°
2026-05-05 13:12 53.89087 10.10698 9948 ft 306 kts
2026-05-05 13:12 53.91269 10.11018 10206 ft 324 kts 354°
2026-05-05 13:12 53.93536 10.10354 10565 ft 336 kts 342°
2026-05-05 13:12 53.95820 10.09360 11215 ft 342 kts 343°
2026-05-05 13:13 53.98143 10.08374 11916 ft 346 kts 343°
2026-05-05 13:13 54.00512 10.07546 12594 ft 352 kts 353°
2026-05-05 13:13 54.02977 10.07857 13269 ft 361 kts
2026-05-05 13:13 54.05453 10.08690 13930 ft 364 kts
2026-05-05 13:14 54.07936 10.09553 14538 ft 368 kts
2026-05-05 13:14 54.10468 10.10440 15115 ft 372 kts
2026-05-05 13:14 54.13015 10.11332 15716 ft 375 kts
2026-05-05 13:14 54.15586 10.12231 16326 ft 379 kts
2026-05-05 13:15 54.18177 10.13137 16925 ft 382 kts
2026-05-05 13:15 54.20792 10.14052 17520 ft 385 kts
2026-05-05 13:15 54.23427 10.14973 18106 ft 388 kts
2026-05-05 13:15 54.26086 10.15900 18618 ft 392 kts
2026-05-05 13:16 54.28764 10.16840 19116 ft 394 kts
2026-05-05 13:16 54.31463 10.17786 19609 ft 397 kts
2026-05-05 13:16 54.34182 10.18739 20115 ft 400 kts
2026-05-05 13:16 54.36923 10.19700 20596 ft 403 kts
2026-05-05 13:17 54.39670 10.20669 21076 ft 406 kts
2026-05-05 13:17 54.42451 10.21657 21556 ft 408 kts
2026-05-05 13:17 54.45241 10.22648 22026 ft 411 kts
2026-05-05 13:17 54.48053 10.23647 22485 ft 413 kts
2026-05-05 13:18 54.50876 10.24644 22936 ft 416 kts
2026-05-05 13:18 54.53722 10.25649 23380 ft 418 kts
2026-05-05 13:18 54.56583 10.26659 23770 ft 421 kts
2026-05-05 13:18 54.59289 10.27621 24130 ft 423 kts
2026-05-05 13:19 54.61828 10.28528 24444 ft 426 kts
2026-05-05 13:19 54.64418 10.29454 24767 ft 427 kts
2026-05-05 13:19 54.67091 10.30412 25097 ft 429 kts
2026-05-05 13:19 54.69598 10.31313 25399 ft 431 kts
2026-05-05 13:20 54.71935 10.32154 25677 ft 432 kts
2026-05-05 13:20 54.74335 10.33015 25959 ft 434 kts
2026-05-05 13:20 54.76567 10.33815 26220 ft 435 kts
2026-05-05 13:20 54.79190 10.34756 26521 ft 437 kts
2026-05-05 13:21 54.82177 10.35829 26852 ft 439 kts
2026-05-05 13:21 54.85178 10.36911 27206 ft 442 kts
2026-05-05 13:21 54.88193 10.38000 27535 ft 444 kts
2026-05-05 13:21 54.91224 10.39097 27867 ft 446 kts
2026-05-05 13:22 54.94269 10.40203 28200 ft 448 kts
2026-05-05 13:22 54.97326 10.41314 28522 ft 450 kts
2026-05-05 13:22 55.00394 10.42428 28839 ft 452 kts
2026-05-05 13:22 55.03475 10.43548 29141 ft 453 kts
2026-05-05 13:23 55.06569 10.44673 29436 ft 455 kts
2026-05-05 13:23 55.09677 10.45809 29717 ft 458 kts
2026-05-05 13:23 55.12802 10.46954 29969 ft 460 kts
2026-05-05 13:23 55.15947 10.48108 30202 ft 462 kts
2026-05-05 13:24 55.19098 10.49266 30431 ft 464 kts
2026-05-05 13:24 55.22266 10.50433 30667 ft 466 kts
2026-05-05 13:24 55.25438 10.51604 30951 ft 466 kts
2026-05-05 13:24 55.28609 10.52776 31285 ft 465 kts
2026-05-05 13:25 55.31769 10.53944 31612 ft 464 kts
2026-05-05 13:25 55.34923 10.55109 31945 ft 464 kts
2026-05-05 13:25 55.38087 10.56276 32226 ft 464 kts
2026-05-05 13:25 55.41244 10.57445 32529 ft 464 kts
2026-05-05 13:26 55.44401 10.58624 32845 ft 463 kts
2026-05-05 13:26 55.47550 10.59800 32962 ft 460 kts
2026-05-05 13:26 55.53754 10.62117 32974 ft 453 kts
2026-05-05 13:27 55.59919 10.64417 32974 ft 453 kts
2026-05-05 13:27 55.66083 10.66732 32975 ft 453 kts
2026-05-05 13:28 55.72208 10.69035 32972 ft 452 kts
2026-05-05 13:28 55.77826 10.71158 32971 ft 453 kts
2026-05-05 13:29 55.82686 10.73002 32972 ft 452 kts
2026-05-05 13:29 55.87893 10.74983 32985 ft 453 kts
2026-05-05 13:30 55.94055 10.77327 32973 ft 453 kts
2026-05-05 13:30 56.00219 10.79680 32968 ft 453 kts
2026-05-05 13:31 56.06379 10.82058 32963 ft 453 kts
2026-05-05 13:31 56.12549 10.84430 32991 ft 454 kts
2026-05-05 13:32 56.18724 10.86804 32978 ft 454 kts
2026-05-05 13:32 56.24904 10.89196 32973 ft 455 kts
2026-05-05 13:33 56.31089 10.91601 32968 ft 455 kts
2026-05-05 13:33 56.37275 10.94008 33004 ft 455 kts
2026-05-05 13:34 56.43463 10.96430 32986 ft 455 kts
2026-05-05 13:34 56.49611 10.98854 32975 ft 455 kts
2026-05-05 13:35 56.52707 11.00074 32508 ft 456 kts
2026-05-05 13:35 56.55805 11.01292 31785 ft 454 kts
2026-05-05 13:35 56.58883 11.02504 31230 ft 451 kts
2026-05-05 13:35 56.61936 11.03712 30661 ft 448 kts